{"data":{"norad_id":56393,"intl_designator":"2023-061V","name":"STARLINK-6303","alt_names":[],"object_type":"PAYLOAD","status":"ACTIVE","operator":null,"country":"US","launch_date":"2023-05-04","launch_site_code":"AFETR","launch_vehicle":null,"mission":null,"orbit_class":"UNKNOWN","rcs_meters":null,"size_class":null,"mass_kg":null,"dimensions":null,"purposes":["comms"],"wikipedia_slug":null,"has_3d_model":false,"image_url":null,"decayed_at":null,"tle_current":{"epoch":"2026-09-19T04:41:25.562400Z","epoch_age_seconds":224768,"freshness":"STALE","line1":"1 56393U 23061V   26262.19543475  .00000482  00000+0  27032-4 0  9995","line2":"2 56393  43.0009 185.0983 0001440 263.2954  96.7734 15.27575549186346","mean_motion":15.27575549,"eccentricity":0.000144,"inclination_deg":43.0009,"raan_deg":185.0983,"arg_perigee_deg":263.2954,"mean_anomaly_deg":96.7734,"bstar":2.7032e-5,"rev_number":18634,"period_min":94.267023385041,"perigee_km":482.0744112502,"apogee_km":484.05043668431,"semimajor_km":6861.1994239673,"source":"CELESTRAK","updated_at":"2026-09-21T09:00:33.433751Z"}}}